contact:dominique.lefevre@mio.osupytheas.fr, maurice.libes@osupytheas.fr, didier.mallarino@osupytheas.fr
Project:EMSO http://www.emso-fr.org/EMSO-France
Depth: 2436.0 m
Title:EMSO Ligure Ouest : Data MII capteur MICROCAT
DateTime_Computer,Latitude,Longitude,Temperature,Conductivity,Pressure,DateTime_Instrument
DateTime_Computer,Latitude,Longitude,degC,S m-1,dbar,DateTime_Instrument
2022-04-09T00:01:34Z,42.805,6.029,13.3000,4.60037,2470.53,2022-4-09T02:03:12Z
2022-04-09T00:04:37Z,42.805,6.029,13.2998,4.60037,2470.544,2022-4-09T02:06:15Z
2022-04-09T00:07:41Z,42.805,6.029,13.2998,4.60033,2470.544,2022-4-09T02:09:19Z
2022-04-09T00:10:44Z,42.805,6.029,13.2999,4.60039,2470.507,2022-4-09T02:12:22Z
2022-04-09T00:13:47Z,42.805,6.029,13.2998,4.60035,2470.553,2022-4-09T02:15:25Z
2022-04-09T00:16:50Z,42.805,6.029,13.2999,4.60034,2470.53,2022-4-09T02:18:28Z
2022-04-09T00:19:53Z,42.805,6.029,13.2999,4.60035,2470.53,2022-4-09T02:21:31Z
2022-04-09T00:22:56Z,42.805,6.029,13.2998,4.60034,2470.544,2022-4-09T02:24:34Z
2022-04-09T00:25:59Z,42.805,6.029,13.2998,4.60036,2470.53,2022-4-09T02:27:37Z
2022-04-09T00:29:02Z,42.805,6.029,13.2996,4.60036,2470.53,2022-4-09T02:30:40Z
2022-04-09T00:32:06Z,42.805,6.029,13.2997,4.60035,2470.544,2022-4-09T02:33:43Z
2022-04-09T00:35:09Z,42.805,6.029,13.2997,4.60035,2470.553,2022-4-09T02:36:47Z
2022-04-09T00:38:12Z,42.805,6.029,13.2999,4.60036,2470.553,2022-4-09T02:39:50Z
2022-04-09T00:41:15Z,42.805,6.029,13.2998,4.60033,2470.483,2022-4-09T02:42:53Z
2022-04-09T00:44:18Z,42.805,6.029,13.2994,4.60035,2470.52,2022-4-09T02:45:56Z
2022-04-09T00:47:21Z,42.805,6.029,13.2996,4.60035,2470.53,2022-4-09T02:48:59Z
2022-04-09T00:50:24Z,42.805,6.029,13.2997,4.60036,2470.567,2022-4-09T02:52:02Z
2022-04-09T00:53:27Z,42.805,6.029,13.2998,4.60038,2470.544,2022-4-09T02:55:05Z
2022-04-09T00:56:30Z,42.805,6.029,13.2996,4.60032,2470.553,2022-4-09T02:58:08Z
2022-04-09T00:59:34Z,42.805,6.029,13.3000,4.60035,2470.53,2022-4-09T03:01:12Z
2022-04-09T01:02:37Z,42.805,6.029,13.2999,4.60034,2470.567,2022-4-09T03:04:15Z
2022-04-09T01:05:40Z,42.805,6.029,13.2992,4.60034,2470.553,2022-4-09T03:07:18Z
2022-04-09T01:08:43Z,42.805,6.029,13.2996,4.60036,2470.53,2022-4-09T03:10:21Z
2022-04-09T01:11:46Z,42.805,6.029,13.2998,4.60033,2470.553,2022-4-09T03:13:24Z
2022-04-09T01:14:49Z,42.805,6.029,13.2995,4.60033,2470.52,2022-4-09T03:16:27Z
2022-04-09T01:17:52Z,42.805,6.029,13.3000,4.60038,2470.53,2022-4-09T03:19:30Z
2022-04-09T01:20:55Z,42.805,6.029,13.2996,4.60035,2470.591,2022-4-09T03:22:33Z
2022-04-09T01:23:59Z,42.805,6.029,13.2998,4.60036,2470.553,2022-4-09T03:25:36Z
2022-04-09T01:27:02Z,42.805,6.029,13.2998,4.60035,2470.53,2022-4-09T03:28:40Z
2022-04-09T01:30:05Z,42.805,6.029,13.3001,4.60036,2470.53,2022-4-09T03:31:43Z
2022-04-09T01:33:08Z,42.805,6.029,13.3000,4.60035,2470.544,2022-4-09T03:34:46Z
2022-04-09T01:36:11Z,42.805,6.029,13.2993,4.60035,2470.507,2022-4-09T03:37:49Z
2022-04-09T01:39:14Z,42.805,6.029,13.2996,4.60036,2470.52,2022-4-09T03:40:52Z
2022-04-09T01:42:17Z,42.805,6.029,13.2998,4.60033,2470.544,2022-4-09T03:43:55Z
2022-04-09T01:45:20Z,42.805,6.029,13.2998,4.60033,2470.53,2022-4-09T03:46:58Z
2022-04-09T01:48:23Z,42.805,6.029,13.2994,4.60036,2470.553,2022-4-09T03:50:01Z
2022-04-09T01:51:27Z,42.805,6.029,13.2997,4.60035,2470.567,2022-4-09T03:53:05Z
2022-04-09T01:54:30Z,42.805,6.029,13.2997,4.60036,2470.493,2022-4-09T03:56:08Z
2022-04-09T01:57:33Z,42.805,6.029,13.3002,4.60035,2470.544,2022-4-09T03:59:11Z
2022-04-09T02:00:36Z,42.805,6.029,13.2996,4.60034,2470.53,2022-4-09T04:02:14Z
2022-04-09T02:03:39Z,42.805,6.029,13.2998,4.60037,2470.553,2022-4-09T04:05:17Z
2022-04-09T02:06:42Z,42.805,6.029,13.2998,4.60035,2470.553,2022-4-09T04:08:20Z
2022-04-09T02:09:45Z,42.805,6.029,13.2996,4.60033,2470.53,2022-4-09T04:11:23Z
2022-04-09T02:12:48Z,42.805,6.029,13.2998,4.60037,2470.553,2022-4-09T04:14:26Z
2022-04-09T02:15:52Z,42.805,6.029,13.2999,4.60036,2470.544,2022-4-09T04:17:29Z
2022-04-09T02:18:55Z,42.805,6.029,13.2997,4.60035,2470.553,2022-4-09T04:20:33Z
2022-04-09T02:21:58Z,42.805,6.029,13.2997,4.60035,2470.553,2022-4-09T04:23:36Z
2022-04-09T02:25:01Z,42.805,6.029,13.3000,4.60038,2470.553,2022-4-09T04:26:39Z
2022-04-09T02:28:04Z,42.805,6.029,13.2998,4.60038,2470.53,2022-4-09T04:29:42Z
2022-04-09T02:31:07Z,42.805,6.029,13.2998,4.60036,2470.53,2022-4-09T04:32:45Z
2022-04-09T02:34:10Z,42.805,6.029,13.2996,4.60035,2470.567,2022-4-09T04:35:48Z
2022-04-09T02:37:13Z,42.805,6.029,13.3000,4.60034,2470.553,2022-4-09T04:38:51Z
2022-04-09T02:40:16Z,42.805,6.029,13.3003,4.60036,2470.53,2022-4-09T04:41:54Z
2022-04-09T02:43:20Z,42.805,6.029,13.3004,4.60038,2470.567,2022-4-09T04:44:58Z
2022-04-09T02:46:23Z,42.805,6.029,13.2997,4.60036,2470.544,2022-4-09T04:48:01Z
2022-04-09T02:49:26Z,42.805,6.029,13.2998,4.60035,2470.53,2022-4-09T04:51:04Z
2022-04-09T02:52:29Z,42.805,6.029,13.2999,4.60034,2470.53,2022-4-09T04:54:07Z
2022-04-09T02:55:32Z,42.805,6.029,13.2996,4.60037,2470.53,2022-4-09T04:57:10Z
2022-04-09T02:58:35Z,42.805,6.029,13.2998,4.60036,2470.53,2022-4-09T05:00:13Z
2022-04-09T03:01:38Z,42.805,6.029,13.2997,4.60035,2470.516,2022-4-09T05:03:16Z
2022-04-09T03:04:41Z,42.805,6.029,13.2995,4.60035,2470.567,2022-4-09T05:06:19Z
2022-04-09T03:07:45Z,42.805,6.029,13.2998,4.60035,2470.553,2022-4-09T05:09:22Z
2022-04-09T03:10:48Z,42.805,6.029,13.2998,4.60037,2470.577,2022-4-09T05:12:26Z
2022-04-09T03:13:51Z,42.805,6.029,13.2999,4.60036,2470.553,2022-4-09T05:15:29Z
2022-04-09T03:16:54Z,42.805,6.029,13.3000,4.60037,2470.553,2022-4-09T05:18:32Z
2022-04-09T03:19:57Z,42.805,6.029,13.3001,4.60037,2470.52,2022-4-09T05:21:35Z
2022-04-09T03:23:00Z,42.805,6.029,13.2999,4.60035,2470.567,2022-4-09T05:24:38Z
2022-04-09T03:26:03Z,42.805,6.029,13.2998,4.60035,2470.553,2022-4-09T05:27:41Z
2022-04-09T03:29:06Z,42.805,6.029,13.3000,4.60037,2470.53,2022-4-09T05:30:44Z
2022-04-09T03:32:09Z,42.805,6.029,13.3000,4.60036,2470.544,2022-4-09T05:33:47Z
2022-04-09T03:35:13Z,42.805,6.029,13.2998,4.60036,2470.544,2022-4-09T05:36:51Z
2022-04-09T03:38:16Z,42.805,6.029,13.2998,4.60035,2470.52,2022-4-09T05:39:54Z
2022-04-09T03:41:19Z,42.805,6.029,13.2998,4.60036,2470.591,2022-4-09T05:42:57Z
2022-04-09T03:44:22Z,42.805,6.029,13.3000,4.60036,2470.507,2022-4-09T05:46:00Z
2022-04-09T03:47:25Z,42.805,6.029,13.2998,4.60037,2470.507,2022-4-09T05:49:03Z
2022-04-09T03:50:28Z,42.805,6.029,13.2999,4.60036,2470.52,2022-4-09T05:52:06Z
2022-04-09T03:53:31Z,42.805,6.029,13.2999,4.60039,2470.53,2022-4-09T05:55:09Z
2022-04-09T03:56:34Z,42.805,6.029,13.2994,4.60034,2470.516,2022-4-09T05:58:12Z
2022-04-09T03:59:38Z,42.805,6.029,13.3000,4.60035,2470.53,2022-4-09T06:01:15Z
2022-04-09T04:02:41Z,42.805,6.029,13.2999,4.60035,2470.553,2022-4-09T06:04:19Z
2022-04-09T04:05:44Z,42.805,6.029,13.2998,4.60036,2470.544,2022-4-09T06:07:22Z
2022-04-09T04:08:47Z,42.805,6.029,13.3001,4.60036,2470.567,2022-4-09T06:10:25Z
2022-04-09T04:11:50Z,42.805,6.029,13.3003,4.60035,2470.553,2022-4-09T06:13:28Z
2022-04-09T04:14:53Z,42.805,6.029,13.2999,4.60036,2470.544,2022-4-09T06:16:31Z
2022-04-09T04:17:56Z,42.805,6.029,13.3005,4.60034,2470.483,2022-4-09T06:19:34Z
2022-04-09T04:20:59Z,42.805,6.029,13.2997,4.60035,2470.591,2022-4-09T06:22:37Z
2022-04-09T04:24:02Z,42.805,6.029,13.3002,4.60034,2470.53,2022-4-09T06:25:40Z
2022-04-09T04:27:06Z,42.805,6.029,13.3000,4.60034,2470.52,2022-4-09T06:28:43Z
2022-04-09T04:30:09Z,42.805,6.029,13.3000,4.60035,2470.53,2022-4-09T06:31:47Z
2022-04-09T04:33:12Z,42.805,6.029,13.2999,4.60036,2470.53,2022-4-09T06:34:50Z
2022-04-09T04:36:15Z,42.805,6.029,13.2998,4.60036,2470.516,2022-4-09T06:37:53Z
2022-04-09T04:39:18Z,42.805,6.029,13.2996,4.60035,2470.567,2022-4-09T06:40:56Z
2022-04-09T04:42:21Z,42.805,6.029,13.3002,4.60035,2470.544,2022-4-09T06:43:59Z
2022-04-09T04:45:24Z,42.805,6.029,13.2998,4.60036,2470.553,2022-4-09T06:47:02Z
2022-04-09T04:48:27Z,42.805,6.029,13.2999,4.60034,2470.567,2022-4-09T06:50:05Z
2022-04-09T04:51:30Z,42.805,6.029,13.2999,4.60035,2470.567,2022-4-09T06:53:08Z
2022-04-09T04:54:34Z,42.805,6.029,13.2999,4.60035,2470.567,2022-4-09T06:56:12Z
2022-04-09T04:57:37Z,42.805,6.029,13.2999,4.60036,2470.53,2022-4-09T06:59:15Z
2022-04-09T05:00:40Z,42.805,6.029,13.2998,4.60034,2470.53,2022-4-09T07:02:18Z
2022-04-09T05:03:43Z,42.805,6.029,13.2997,4.60036,2470.52,2022-4-09T07:05:21Z
2022-04-09T05:06:46Z,42.805,6.029,13.2997,4.60033,2470.53,2022-4-09T07:08:24Z
2022-04-09T05:09:49Z,42.805,6.029,13.3003,4.60034,2470.507,2022-4-09T07:11:27Z
2022-04-09T05:12:52Z,42.805,6.029,13.2997,4.60035,2470.553,2022-4-09T07:14:30Z
2022-04-09T05:15:55Z,42.805,6.029,13.2999,4.60037,2470.53,2022-4-09T07:17:33Z
2022-04-09T05:18:59Z,42.805,6.029,13.2999,4.60035,2470.53,2022-4-09T07:20:36Z
2022-04-09T05:22:02Z,42.805,6.029,13.3000,4.60035,2470.553,2022-4-09T07:23:40Z
2022-04-09T05:25:05Z,42.805,6.029,13.2998,4.60036,2470.507,2022-4-09T07:26:43Z
2022-04-09T05:28:08Z,42.805,6.029,13.2997,4.60033,2470.52,2022-4-09T07:29:46Z
2022-04-09T05:31:11Z,42.805,6.029,13.3000,4.60034,2470.507,2022-4-09T07:32:49Z
2022-04-09T05:34:14Z,42.805,6.029,13.2997,4.60034,2470.507,2022-4-09T07:35:52Z
2022-04-09T05:37:17Z,42.805,6.029,13.2996,4.60033,2470.497,2022-4-09T07:38:55Z
2022-04-09T05:40:20Z,42.805,6.029,13.3000,4.60034,2470.507,2022-4-09T07:41:58Z
2022-04-09T05:43:23Z,42.805,6.029,13.2999,4.60033,2470.553,2022-4-09T07:45:01Z
2022-04-09T05:46:27Z,42.805,6.029,13.3000,4.60034,2470.507,2022-4-09T07:48:04Z
2022-04-09T05:49:30Z,42.805,6.029,13.2997,4.60035,2470.544,2022-4-09T07:51:08Z
2022-04-09T05:52:33Z,42.805,6.029,13.2999,4.60035,2470.507,2022-4-09T07:54:11Z
2022-04-09T05:55:36Z,42.805,6.029,13.2995,4.60034,2470.483,2022-4-09T07:57:14Z
2022-04-09T05:58:39Z,42.805,6.029,13.2998,4.60035,2470.497,2022-4-09T08:00:17Z
2022-04-09T06:01:42Z,42.805,6.029,13.2999,4.60034,2470.52,2022-4-09T08:03:20Z
2022-04-09T06:04:45Z,42.805,6.029,13.2998,4.60034,2470.483,2022-4-09T08:06:23Z
2022-04-09T06:07:48Z,42.805,6.029,13.2998,4.60035,2470.483,2022-4-09T08:09:26Z
2022-04-09T06:10:51Z,42.805,6.029,13.2997,4.60033,2470.52,2022-4-09T08:12:29Z
2022-04-09T06:13:55Z,42.805,6.029,13.3002,4.60035,2470.507,2022-4-09T08:15:33Z
2022-04-09T06:16:58Z,42.805,6.029,13.3000,4.60034,2470.507,2022-4-09T08:18:36Z
2022-04-09T06:20:01Z,42.805,6.029,13.2997,4.60033,2470.507,2022-4-09T08:21:39Z
2022-04-09T06:23:04Z,42.805,6.029,13.3003,4.60035,2470.497,2022-4-09T08:24:42Z
2022-04-09T06:26:07Z,42.805,6.029,13.2998,4.60034,2470.52,2022-4-09T08:27:45Z
2022-04-09T06:29:10Z,42.805,6.029,13.2997,4.60035,2470.497,2022-4-09T08:30:48Z
2022-04-09T06:32:13Z,42.805,6.029,13.2996,4.60034,2470.507,2022-4-09T08:33:51Z
2022-04-09T06:35:16Z,42.805,6.029,13.2997,4.60034,2470.507,2022-4-09T08:36:54Z
2022-04-09T06:38:20Z,42.805,6.029,13.2999,4.60034,2470.507,2022-4-09T08:39:57Z
2022-04-09T06:41:23Z,42.805,6.029,13.2998,4.60035,2470.47,2022-4-09T08:43:01Z
2022-04-09T06:44:26Z,42.805,6.029,13.2998,4.60033,2470.483,2022-4-09T08:46:04Z
2022-04-09T06:47:29Z,42.805,6.029,13.2998,4.60035,2470.507,2022-4-09T08:49:07Z
2022-04-09T06:50:32Z,42.805,6.029,13.2999,4.60034,2470.52,2022-4-09T08:52:10Z
2022-04-09T06:53:35Z,42.805,6.029,13.3002,4.60035,2470.507,2022-4-09T08:55:13Z
2022-04-09T06:56:38Z,42.805,6.029,13.2999,4.60034,2470.52,2022-4-09T08:58:16Z
2022-04-09T06:59:41Z,42.805,6.029,13.2997,4.60033,2470.483,2022-4-09T09:01:19Z
2022-04-09T07:02:44Z,42.805,6.029,13.2997,4.60034,2470.497,2022-4-09T09:04:22Z
2022-04-09T07:05:48Z,42.805,6.029,13.2996,4.60033,2470.52,2022-4-09T09:07:26Z
2022-04-09T07:08:51Z,42.805,6.029,13.2997,4.60034,2470.497,2022-4-09T09:10:29Z
2022-04-09T07:11:54Z,42.805,6.029,13.2997,4.60033,2470.46,2022-4-09T09:13:32Z
2022-04-09T07:14:57Z,42.805,6.029,13.2993,4.60034,2470.46,2022-4-09T09:16:35Z
2022-04-09T07:18:00Z,42.805,6.029,13.2998,4.60035,2470.483,2022-4-09T09:19:38Z
2022-04-09T07:21:03Z,42.805,6.029,13.2996,4.60033,2470.46,2022-4-09T09:22:41Z
2022-04-09T07:24:06Z,42.805,6.029,13.2999,4.60033,2470.483,2022-4-09T09:25:44Z
2022-04-09T07:27:09Z,42.805,6.029,13.3000,4.60033,2470.483,2022-4-09T09:28:47Z
2022-04-09T07:30:13Z,42.805,6.029,13.2999,4.60034,2470.52,2022-4-09T09:31:50Z
2022-04-09T07:33:16Z,42.805,6.029,13.3002,4.60034,2470.507,2022-4-09T09:34:54Z
2022-04-09T07:36:19Z,42.805,6.029,13.3001,4.60035,2470.474,2022-4-09T09:37:57Z
2022-04-09T07:39:22Z,42.805,6.029,13.3000,4.60036,2470.497,2022-4-09T09:41:00Z
2022-04-09T07:42:25Z,42.805,6.029,13.2996,4.60036,2470.507,2022-4-09T09:44:03Z
2022-04-09T07:45:28Z,42.805,6.029,13.3002,4.60034,2470.497,2022-4-09T09:47:06Z
2022-04-09T07:48:31Z,42.805,6.029,13.2997,4.60035,2470.483,2022-4-09T09:50:09Z
2022-04-09T07:51:34Z,42.805,6.029,13.2997,4.60033,2470.474,2022-4-09T09:53:12Z
2022-04-09T07:54:37Z,42.805,6.029,13.2999,4.60033,2470.483,2022-4-09T09:56:15Z
2022-04-09T07:57:41Z,42.805,6.029,13.2998,4.60036,2470.497,2022-4-09T09:59:19Z
2022-04-09T08:00:44Z,42.805,6.029,13.3000,4.60035,2470.474,2022-4-09T10:02:22Z
2022-04-09T08:03:47Z,42.805,6.029,13.2998,4.60034,2470.497,2022-4-09T10:05:25Z
2022-04-09T08:06:50Z,42.805,6.029,13.3000,4.60036,2470.483,2022-4-09T10:08:28Z
2022-04-09T08:09:53Z,42.805,6.029,13.2997,4.60034,2470.483,2022-4-09T10:11:31Z
2022-04-09T08:12:56Z,42.805,6.029,13.2999,4.60034,2470.474,2022-4-09T10:14:34Z
2022-04-09T08:15:59Z,42.805,6.029,13.2996,4.60033,2470.46,2022-4-09T10:17:37Z
2022-04-09T08:19:02Z,42.805,6.029,13.2996,4.60034,2470.446,2022-4-09T10:20:40Z
2022-04-09T08:22:06Z,42.805,6.029,13.2997,4.60033,2470.46,2022-4-09T10:23:43Z
2022-04-09T08:25:09Z,42.805,6.029,13.3000,4.60033,2470.483,2022-4-09T10:26:47Z
2022-04-09T08:28:12Z,42.805,6.029,13.3000,4.60034,2470.52,2022-4-09T10:29:50Z
2022-04-09T08:31:15Z,42.805,6.029,13.2999,4.60035,2470.483,2022-4-09T10:32:53Z
2022-04-09T08:34:18Z,42.805,6.029,13.2996,4.60039,2470.483,2022-4-09T10:35:56Z
2022-04-09T08:37:21Z,42.805,6.029,13.2997,4.60034,2470.483,2022-4-09T10:38:59Z
2022-04-09T08:40:24Z,42.805,6.029,13.2998,4.60034,2470.507,2022-4-09T10:42:02Z
2022-04-09T08:43:27Z,42.805,6.029,13.3000,4.60033,2470.483,2022-4-09T10:45:05Z
2022-04-09T08:46:31Z,42.805,6.029,13.2998,4.60034,2470.46,2022-4-09T10:48:08Z
2022-04-09T08:49:34Z,42.805,6.029,13.2999,4.60033,2470.497,2022-4-09T10:51:12Z
2022-04-09T08:52:37Z,42.805,6.029,13.3000,4.60035,2470.497,2022-4-09T10:54:15Z
2022-04-09T08:55:40Z,42.805,6.029,13.2998,4.60033,2470.483,2022-4-09T10:57:18Z
2022-04-09T08:58:43Z,42.805,6.029,13.2996,4.60033,2470.507,2022-4-09T11:00:21Z
2022-04-09T09:01:46Z,42.805,6.029,13.2998,4.60035,2470.507,2022-4-09T11:03:24Z
2022-04-09T09:04:49Z,42.805,6.029,13.3000,4.60033,2470.507,2022-4-09T11:06:27Z
2022-04-09T09:07:52Z,42.805,6.029,13.2997,4.60033,2470.52,2022-4-09T11:09:30Z
2022-04-09T09:10:55Z,42.805,6.029,13.2995,4.60033,2470.53,2022-4-09T11:12:33Z
2022-04-09T09:13:59Z,42.805,6.029,13.3000,4.60034,2470.53,2022-4-09T11:15:37Z
2022-04-09T09:17:02Z,42.805,6.029,13.2999,4.60034,2470.497,2022-4-09T11:18:40Z
2022-04-09T09:20:05Z,42.805,6.029,13.3000,4.60034,2470.507,2022-4-09T11:21:43Z
2022-04-09T09:23:08Z,42.805,6.029,13.2998,4.60034,2470.483,2022-4-09T11:24:46Z
2022-04-09T09:26:11Z,42.805,6.029,13.2996,4.60033,2470.53,2022-4-09T11:27:49Z
2022-04-09T09:29:14Z,42.805,6.029,13.2997,4.60034,2470.483,2022-4-09T11:30:52Z
2022-04-09T09:32:17Z,42.805,6.029,13.2998,4.60034,2470.507,2022-4-09T11:33:55Z
2022-04-09T09:35:20Z,42.805,6.029,13.2997,4.60034,2470.52,2022-4-09T11:36:58Z
2022-04-09T09:38:24Z,42.805,6.029,13.3002,4.60034,2470.483,2022-4-09T11:40:02Z
2022-04-09T09:41:27Z,42.805,6.029,13.2998,4.60033,2470.474,2022-4-09T11:43:05Z
2022-04-09T09:44:30Z,42.805,6.029,13.3000,4.60033,2470.497,2022-4-09T11:46:08Z
2022-04-09T09:47:33Z,42.805,6.029,13.2998,4.60032,2470.544,2022-4-09T11:49:11Z
2022-04-09T09:50:36Z,42.805,6.029,13.2996,4.60033,2470.507,2022-4-09T11:52:14Z
2022-04-09T09:53:39Z,42.805,6.029,13.3000,4.60033,2470.483,2022-4-09T11:55:17Z
2022-04-09T09:56:42Z,42.805,6.029,13.2995,4.60034,2470.46,2022-4-09T11:58:20Z
2022-04-09T09:59:45Z,42.805,6.029,13.2996,4.60033,2470.507,2022-4-09T12:01:23Z
2022-04-09T10:02:49Z,42.805,6.029,13.2996,4.60033,2470.483,2022-4-09T12:04:26Z
2022-04-09T10:05:52Z,42.805,6.029,13.2997,4.60032,2470.497,2022-4-09T12:07:30Z
2022-04-09T10:08:55Z,42.805,6.029,13.3000,4.60033,2470.507,2022-4-09T12:10:33Z
2022-04-09T10:11:58Z,42.805,6.029,13.2998,4.60034,2470.46,2022-4-09T12:13:36Z
2022-04-09T10:15:01Z,42.805,6.029,13.3001,4.60033,2470.483,2022-4-09T12:16:39Z
2022-04-09T10:18:04Z,42.805,6.029,13.2996,4.60033,2470.507,2022-4-09T12:19:42Z
2022-04-09T10:21:07Z,42.805,6.029,13.2998,4.60033,2470.507,2022-4-09T12:22:45Z
2022-04-09T10:24:10Z,42.805,6.029,13.2997,4.60033,2470.483,2022-4-09T12:25:48Z
2022-04-09T10:27:14Z,42.805,6.029,13.2999,4.60034,2470.507,2022-4-09T12:28:51Z
2022-04-09T10:30:17Z,42.805,6.029,13.2996,4.60033,2470.497,2022-4-09T12:31:55Z
2022-04-09T10:33:20Z,42.805,6.029,13.2995,4.60035,2470.483,2022-4-09T12:34:58Z
2022-04-09T10:36:23Z,42.805,6.029,13.2999,4.60033,2470.497,2022-4-09T12:38:01Z
2022-04-09T10:39:26Z,42.805,6.029,13.3003,4.60033,2470.52,2022-4-09T12:41:04Z
2022-04-09T10:42:29Z,42.805,6.029,13.2998,4.60033,2470.483,2022-4-09T12:44:07Z
2022-04-09T10:45:32Z,42.805,6.029,13.2997,4.60034,2470.507,2022-4-09T12:47:10Z
2022-04-09T10:48:35Z,42.805,6.029,13.3000,4.60032,2470.507,2022-4-09T12:50:13Z
2022-04-09T10:51:39Z,42.805,6.029,13.3000,4.60035,2470.507,2022-4-09T12:53:16Z
2022-04-09T10:54:42Z,42.805,6.029,13.2997,4.60033,2470.507,2022-4-09T12:56:20Z
2022-04-09T10:57:45Z,42.805,6.029,13.2999,4.60035,2470.52,2022-4-09T12:59:23Z
2022-04-09T11:00:48Z,42.805,6.029,13.2995,4.60034,2470.52,2022-4-09T13:02:26Z
2022-04-09T11:03:51Z,42.805,6.029,13.3002,4.60034,2470.53,2022-4-09T13:05:29Z
2022-04-09T11:06:54Z,42.805,6.029,13.2998,4.60033,2470.507,2022-4-09T13:08:32Z
2022-04-09T11:09:57Z,42.805,6.029,13.2996,4.60033,2470.52,2022-4-09T13:11:35Z
2022-04-09T11:13:00Z,42.805,6.029,13.2996,4.60033,2470.53,2022-4-09T13:14:38Z
2022-04-09T11:16:03Z,42.805,6.029,13.2999,4.60033,2470.507,2022-4-09T13:17:41Z
2022-04-09T11:19:07Z,42.805,6.029,13.2995,4.60035,2470.497,2022-4-09T13:20:45Z
2022-04-09T11:22:10Z,42.805,6.029,13.2998,4.60033,2470.52,2022-4-09T13:23:48Z
2022-04-09T11:25:13Z,42.805,6.029,13.3000,4.60033,2470.483,2022-4-09T13:26:51Z
2022-04-09T11:28:16Z,42.805,6.029,13.2997,4.60033,2470.507,2022-4-09T13:29:54Z
2022-04-09T11:31:19Z,42.805,6.029,13.2996,4.60031,2470.474,2022-4-09T13:32:57Z
2022-04-09T11:34:22Z,42.805,6.029,13.2998,4.60034,2470.507,2022-4-09T13:36:00Z
2022-04-09T11:37:25Z,42.805,6.029,13.2996,4.60033,2470.483,2022-4-09T13:39:03Z
2022-04-09T11:40:28Z,42.805,6.029,13.3000,4.60033,2470.483,2022-4-09T13:42:06Z
2022-04-09T11:43:32Z,42.805,6.029,13.2997,4.60032,2470.507,2022-4-09T13:45:09Z
2022-04-09T11:46:35Z,42.805,6.029,13.2996,4.60033,2470.474,2022-4-09T13:48:13Z
2022-04-09T11:49:38Z,42.805,6.029,13.2998,4.60033,2470.46,2022-4-09T13:51:16Z
2022-04-09T11:52:41Z,42.805,6.029,13.2998,4.60031,2470.483,2022-4-09T13:54:19Z
2022-04-09T11:55:44Z,42.805,6.029,13.2995,4.60032,2470.52,2022-4-09T13:57:22Z
2022-04-09T11:58:47Z,42.805,6.029,13.2996,4.60033,2470.483,2022-4-09T14:00:25Z
2022-04-09T12:01:50Z,42.805,6.029,13.2998,4.60033,2470.483,2022-4-09T14:03:28Z
2022-04-09T12:04:53Z,42.805,6.029,13.2996,4.60033,2470.483,2022-4-09T14:06:31Z
2022-04-09T12:07:56Z,42.805,6.029,13.2998,4.60032,2470.483,2022-4-09T14:09:34Z
2022-04-09T12:11:00Z,42.805,6.029,13.2997,4.60033,2470.497,2022-4-09T14:12:38Z
2022-04-09T12:14:03Z,42.805,6.029,13.3000,4.60032,2470.52,2022-4-09T14:15:41Z
2022-04-09T12:17:06Z,42.805,6.029,13.2996,4.60033,2470.474,2022-4-09T14:18:44Z
2022-04-09T12:20:09Z,42.805,6.029,13.2997,4.60033,2470.483,2022-4-09T14:21:47Z
2022-04-09T12:23:12Z,42.805,6.029,13.2998,4.60033,2470.507,2022-4-09T14:24:50Z
2022-04-09T12:26:15Z,42.805,6.029,13.2993,4.60033,2470.46,2022-4-09T14:27:53Z
2022-04-09T12:29:18Z,42.805,6.029,13.2999,4.60032,2470.483,2022-4-09T14:30:56Z
2022-04-09T12:32:21Z,42.805,6.029,13.2997,4.60032,2470.483,2022-4-09T14:33:59Z
2022-04-09T12:35:25Z,42.805,6.029,13.2998,4.60035,2470.483,2022-4-09T14:37:03Z
2022-04-09T12:38:28Z,42.805,6.029,13.2996,4.60032,2470.483,2022-4-09T14:40:06Z
2022-04-09T12:41:31Z,42.805,6.029,13.2996,4.60032,2470.483,2022-4-09T14:43:09Z
2022-04-09T12:44:34Z,42.805,6.029,13.2999,4.60034,2470.497,2022-4-09T14:46:12Z
2022-04-09T12:47:37Z,42.805,6.029,13.2998,4.60034,2470.46,2022-4-09T14:49:15Z
2022-04-09T12:50:40Z,42.805,6.029,13.3000,4.60033,2470.46,2022-4-09T14:52:18Z
2022-04-09T12:53:43Z,42.805,6.029,13.2996,4.60033,2470.483,2022-4-09T14:55:21Z
2022-04-09T12:56:46Z,42.805,6.029,13.3000,4.60032,2470.483,2022-4-09T14:58:24Z
2022-04-09T12:59:50Z,42.805,6.029,13.2996,4.60033,2470.483,2022-4-09T15:01:28Z
2022-04-09T13:02:53Z,42.805,6.029,13.2997,4.60033,2470.497,2022-4-09T15:04:31Z
2022-04-09T13:05:56Z,42.805,6.029,13.2995,4.60033,2470.483,2022-4-09T15:07:34Z
2022-04-09T13:08:59Z,42.805,6.029,13.3000,4.60033,2470.507,2022-4-09T15:10:37Z
2022-04-09T13:12:02Z,42.805,6.029,13.3000,4.60033,2470.483,2022-4-09T15:13:40Z
2022-04-09T13:15:05Z,42.805,6.029,13.2996,4.60033,2470.46,2022-4-09T15:16:43Z
2022-04-09T13:18:08Z,42.805,6.029,13.2998,4.60033,2470.483,2022-4-09T15:19:46Z
2022-04-09T13:21:11Z,42.805,6.029,13.3004,4.60031,2470.437,2022-4-09T15:22:49Z
2022-04-09T13:24:15Z,42.805,6.029,13.2999,4.60035,2470.483,2022-4-09T15:25:53Z
2022-04-09T13:27:18Z,42.805,6.029,13.2993,4.60034,2470.437,2022-4-09T15:28:56Z
2022-04-09T13:30:21Z,42.805,6.029,13.3000,4.60033,2470.474,2022-4-09T15:31:59Z
2022-04-09T13:33:24Z,42.805,6.029,13.2996,4.60033,2470.46,2022-4-09T15:35:02Z
2022-04-09T13:36:27Z,42.805,6.029,13.2998,4.60034,2470.46,2022-4-09T15:38:05Z
2022-04-09T13:39:30Z,42.805,6.029,13.2998,4.60033,2470.46,2022-4-09T15:41:08Z
2022-04-09T13:42:33Z,42.805,6.029,13.3002,4.60033,2470.46,2022-4-09T15:44:11Z
2022-04-09T13:45:36Z,42.805,6.029,13.2998,4.60033,2470.497,2022-4-09T15:47:14Z
2022-04-09T13:48:40Z,42.805,6.029,13.2998,4.60033,2470.437,2022-4-09T15:50:17Z
2022-04-09T13:51:43Z,42.805,6.029,13.3003,4.60033,2470.474,2022-4-09T15:53:21Z
2022-04-09T13:54:46Z,42.805,6.029,13.2996,4.60033,2470.46,2022-4-09T15:56:24Z
2022-04-09T13:57:49Z,42.805,6.029,13.2997,4.60036,2470.483,2022-4-09T15:59:27Z
2022-04-09T14:00:52Z,42.805,6.029,13.3000,4.60034,2470.474,2022-4-09T16:02:30Z
2022-04-09T14:03:55Z,42.805,6.029,13.2998,4.60032,2470.474,2022-4-09T16:05:33Z
2022-04-09T14:06:58Z,42.805,6.029,13.2998,4.60034,2470.497,2022-4-09T16:08:36Z
2022-04-09T14:10:01Z,42.805,6.029,13.2996,4.60031,2470.437,2022-4-09T16:11:39Z
2022-04-09T14:13:05Z,42.805,6.029,13.2996,4.60031,2470.474,2022-4-09T16:14:42Z
2022-04-09T14:16:08Z,42.805,6.029,13.2996,4.60033,2470.46,2022-4-09T16:17:46Z
2022-04-09T14:19:11Z,42.805,6.029,13.2998,4.60033,2470.474,2022-4-09T16:20:49Z
2022-04-09T14:22:14Z,42.805,6.029,13.2998,4.60033,2470.474,2022-4-09T16:23:52Z
2022-04-09T14:25:17Z,42.805,6.029,13.2997,4.60033,2470.483,2022-4-09T16:26:55Z
2022-04-09T14:28:20Z,42.805,6.029,13.2998,4.60033,2470.437,2022-4-09T16:29:58Z
2022-04-09T14:31:23Z,42.805,6.029,13.2997,4.60033,2470.46,2022-4-09T16:33:01Z
2022-04-09T14:34:26Z,42.805,6.029,13.2994,4.60034,2470.46,2022-4-09T16:36:04Z
2022-04-09T14:37:30Z,42.805,6.029,13.3002,4.60033,2470.427,2022-4-09T16:39:07Z
2022-04-09T14:40:33Z,42.805,6.029,13.2993,4.60034,2470.437,2022-4-09T16:42:11Z
2022-04-09T14:43:36Z,42.805,6.029,13.2996,4.60032,2470.46,2022-4-09T16:45:14Z
2022-04-09T14:46:39Z,42.805,6.029,13.2999,4.60033,2470.46,2022-4-09T16:48:17Z
2022-04-09T14:49:42Z,42.805,6.029,13.3000,4.60036,2470.474,2022-4-09T16:51:20Z
2022-04-09T14:52:45Z,42.805,6.029,13.2997,4.60034,2470.46,2022-4-09T16:54:23Z
2022-04-09T14:55:48Z,42.805,6.029,13.2996,4.60033,2470.423,2022-4-09T16:57:26Z
2022-04-09T14:58:51Z,42.805,6.029,13.3001,4.60033,2470.437,2022-4-09T17:00:29Z
2022-04-09T15:01:54Z,42.805,6.029,13.3000,4.60033,2470.46,2022-4-09T17:03:32Z
2022-04-09T15:04:58Z,42.805,6.029,13.2998,4.60033,2470.46,2022-4-09T17:06:36Z
2022-04-09T15:08:01Z,42.805,6.029,13.2995,4.60033,2470.413,2022-4-09T17:09:39Z
2022-04-09T15:11:04Z,42.805,6.029,13.3001,4.60034,2470.464,2022-4-09T17:12:42Z
2022-04-09T15:14:07Z,42.805,6.029,13.2998,4.60033,2470.45,2022-4-09T17:15:45Z